User: anonymous
Location: Norwich
(52.6280°N, 1.3030°E)
Time: 20:07:31
(UTC+01:00)
Language:

APEX - Orbit

View from above orbital plane
View from above orbital plane
View from above satellite
View from above satellite

Ground track
Ground track

The orbit data is extracted from the following two-line orbital elements,

1 23191U 94046A   14244.48138647  .00030542  00000-0  12166-2 0  9830
2 23191 069.9225 016.8824 0740657 197.5593 236.6624 14.05066330971248
Epoch (UTC): 01 September 2014 11:33:11
Eccentricity: 0.0740657
inclination: 69.9225°
perigee height: 339 km
apogee height: 1413 km
right ascension of ascending node: 16.8824°
argument of perigee: 197.5593°
revolutions per day: 14.05066330
mean anomaly at epoch: 236.6624°
orbit number at epoch: 97124

The dashed part of the orbit path shows where the satellite is in the earth's shadow,  

DLR